SWR1R EDDM-LSZH

Flight info

Callsign SWR1R
Flight time 0h 28m
Altitude 20000
Route MERSI5S MERSI Y100 MOMUK Y112 RAVED L856 NEGRA
Aircraft A321/M-SDE3FGHIRWY/LB1

Departure

Time 2026-05-07 17:26
Airport Munich Airport (EDDM)

Arrival

Time 2026-05-07 17:55
Airport Zürich Airport (LSZH)
Time Latitude Longitude Altitude Speed Heading
2026-05-07 16:43 48.35547 11.79306 1486 ft 0 kts 263°
2026-05-07 17:02 48.35549 11.79336 1474 ft 4 kts 263°
2026-05-07 17:02 48.35552 11.79371 1476 ft 2 kts 263°
2026-05-07 17:03 48.35558 11.79406 1474 ft 4 kts 236°
2026-05-07 17:03 48.35576 11.79430 1473 ft 4 kts 188°
2026-05-07 17:03 48.35601 11.79429 1480 ft 4 kts 173°
2026-05-07 17:03 48.35609 11.79427 1478 ft 0 kts 173°
2026-05-07 17:08 48.35588 11.79431 1476 ft 7 kts 173°
2026-05-07 17:08 48.35540 11.79439 1481 ft 6 kts 173°
2026-05-07 17:08 48.35494 11.79447 1478 ft 9 kts 173°
2026-05-07 17:08 48.35435 11.79458 1479 ft 8 kts 173°
2026-05-07 17:09 48.35387 11.79466 1482 ft 6 kts 173°
2026-05-07 17:09 48.35349 11.79473 1471 ft 5 kts 173°
2026-05-07 17:09 48.35320 11.79478 1479 ft 4 kts 173°
2026-05-07 17:09 48.35249 11.79490 1483 ft 14 kts 173°
2026-05-07 17:10 48.35159 11.79506 1481 ft 12 kts 173°
2026-05-07 17:10 48.35079 11.79519 1477 ft 11 kts 173°
2026-05-07 17:10 48.35008 11.79531 1480 ft 9 kts 173°
2026-05-07 17:10 48.34948 11.79542 1478 ft 8 kts 173°
2026-05-07 17:11 48.34899 11.79551 1476 ft 6 kts 173°
2026-05-07 17:11 48.34857 11.79558 1480 ft 8 kts 173°
2026-05-07 17:11 48.34833 11.79566 1485 ft 0 kts 157°
2026-05-07 17:12 48.34809 11.79591 1483 ft 5 kts 127°
2026-05-07 17:12 48.34800 11.79652 1482 ft 10 kts 89°
2026-05-07 17:12 48.34808 11.79764 1485 ft 10 kts 84°
2026-05-07 17:12 48.34815 11.79867 1485 ft 9 kts 84°
2026-05-07 17:13 48.34822 11.79959 1485 ft 8 kts 83°
2026-05-07 17:13 48.34828 11.80040 1480 ft 7 kts 83°
2026-05-07 17:13 48.34825 11.80144 1479 ft 13 kts 110°
2026-05-07 17:13 48.34768 11.80231 1479 ft 11 kts 153°
2026-05-07 17:14 48.34698 11.80249 1485 ft 9 kts 174°
2026-05-07 17:14 48.34659 11.80255 1485 ft 0 kts 174°
2026-05-07 17:19 48.34637 11.80259 1482 ft 9 kts 173°
2026-05-07 17:19 48.34578 11.80269 1476 ft 4 kts 173°
2026-05-07 17:19 48.34576 11.80269 1477 ft 0 kts 173°
2026-05-07 17:23 48.34545 11.80274 1481 ft 13 kts 173°
2026-05-07 17:24 48.34464 11.80227 1475 ft 12 kts 245°
2026-05-07 17:24 48.34455 11.80130 1485 ft 6 kts 264°
2026-05-07 17:24 48.34454 11.80110 1485 ft 0 kts 264°
2026-05-07 17:25 48.34452 11.80086 1485 ft 14 kts 264°
2026-05-07 17:25 48.34410 11.79560 1476 ft 84 kts 263°
2026-05-07 17:25 48.34321 11.78392 1471 ft 138 kts 263°
2026-05-07 17:25 48.34192 11.76749 1477 ft 177 kts 263°
2026-05-07 17:26 48.34042 11.74824 1806 ft 189 kts 267°
2026-05-07 17:26 48.33899 11.72846 2440 ft 190 kts 268°
2026-05-07 17:26 48.33753 11.70855 2956 ft 197 kts 264°
2026-05-07 17:26 48.33591 11.68695 3137 ft 219 kts 265°
2026-05-07 17:27 48.33415 11.66402 3719 ft 226 kts 265°
2026-05-07 17:27 48.33230 11.64041 4408 ft 234 kts 264°
2026-05-07 17:27 48.33045 11.61494 4777 ft 254 kts 265°
2026-05-07 17:27 48.32854 11.58811 5488 ft 260 kts 264°
2026-05-07 17:28 48.32660 11.56101 6355 ft 262 kts 264°
2026-05-07 17:28 48.32466 11.53385 7185 ft 262 kts 264°
2026-05-07 17:28 48.32268 11.50653 8002 ft 263 kts 264°
2026-05-07 17:28 48.32065 11.47913 8812 ft 265 kts 264°
2026-05-07 17:29 48.31860 11.45153 9644 ft 267 kts 263°
2026-05-07 17:29 48.31551 11.42389 10288 ft 276 kts 252°
2026-05-07 17:29 48.30755 11.39644 10466 ft 299 kts 245°
2026-05-07 17:29 48.29811 11.36707 10641 ft 323 kts 245°
2026-05-07 17:30 48.28783 11.33580 10787 ft 344 kts 244°
2026-05-07 17:30 48.27703 11.30306 11186 ft 356 kts 244°
2026-05-07 17:30 48.26586 11.26915 11536 ft 368 kts 244°
2026-05-07 17:30 48.25434 11.23409 11845 ft 379 kts 244°
2026-05-07 17:31 48.24266 11.19839 12372 ft 383 kts 244°
2026-05-07 17:31 48.23089 11.16228 12929 ft 387 kts 244°
2026-05-07 17:31 48.21900 11.12581 13489 ft 391 kts 244°
2026-05-07 17:31 48.20701 11.08903 14015 ft 394 kts 245°
2026-05-07 17:32 48.19491 11.05203 14494 ft 397 kts 245°
2026-05-07 17:32 48.18268 11.01474 14986 ft 400 kts 245°
2026-05-07 17:32 48.17033 10.97725 15468 ft 403 kts 245°
2026-05-07 17:32 48.16209 10.95233 15774 ft 405 kts 245°
2026-05-07 17:33 48.14529 10.90152 16409 ft 409 kts 245°
2026-05-07 17:33 48.13264 10.86321 16852 ft 412 kts 244°
2026-05-07 17:33 48.11986 10.82450 17303 ft 416 kts 245°
2026-05-07 17:33 48.10698 10.78556 17758 ft 419 kts 245°
2026-05-07 17:34 48.09399 10.74631 18211 ft 423 kts 245°
2026-05-07 17:34 48.08086 10.70673 18602 ft 426 kts 245°
2026-05-07 17:34 48.06765 10.66693 18944 ft 429 kts 244°
2026-05-07 17:34 48.05438 10.62704 19033 ft 429 kts 244°
2026-05-07 17:35 48.04106 10.58708 19043 ft 429 kts 244°
2026-05-07 17:35 48.02774 10.54716 19041 ft 429 kts 244°
2026-05-07 17:35 48.01441 10.50729 19038 ft 429 kts 244°
2026-05-07 17:35 48.00108 10.46752 19032 ft 429 kts 244°
2026-05-07 17:36 47.98785 10.42814 19033 ft 429 kts 244°
2026-05-07 17:36 47.97441 10.38827 19032 ft 429 kts 244°
2026-05-07 17:36 47.96100 10.34852 19027 ft 430 kts 244°
2026-05-07 17:36 47.94757 10.30867 19057 ft 431 kts 244°
2026-05-07 17:37 47.93411 10.26875 19056 ft 431 kts 244°
2026-05-07 17:37 47.92043 10.22832 19056 ft 431 kts 244°
2026-05-07 17:37 47.90712 10.18902 19058 ft 431 kts 244°
2026-05-07 17:37 47.89361 10.14923 19054 ft 431 kts 244°
2026-05-07 17:38 47.88008 10.10938 19051 ft 431 kts 244°
2026-05-07 17:38 47.86657 10.06960 19051 ft 431 kts 244°
2026-05-07 17:38 47.85301 10.02981 19046 ft 431 kts 244°
2026-05-07 17:38 47.83942 9.99004 19042 ft 431 kts 244°
2026-05-07 17:39 47.83024 9.96325 19042 ft 430 kts 243°
2026-05-07 17:39 47.81662 9.92356 19039 ft 430 kts 243°
2026-05-07 17:39 47.80321 9.88453 18797 ft 425 kts 243°
2026-05-07 17:39 47.78995 9.84590 18642 ft 407 kts 243°
2026-05-07 17:40 47.77736 9.80924 18463 ft 391 kts 243°
2026-05-07 17:40 47.76529 9.77424 18208 ft 379 kts 243°
2026-05-07 17:40 47.75343 9.73995 17930 ft 368 kts 243°
2026-05-07 17:40 47.74194 9.70650 17682 ft 360 kts 245°
2026-05-07 17:41 47.73328 9.67234 17411 ft 356 kts 255°
2026-05-07 17:41 47.72870 9.63774 17150 ft 354 kts 263°
2026-05-07 17:41 47.72737 9.60169 16896 ft 353 kts 267°
2026-05-07 17:41 47.72640 9.56544 16506 ft 350 kts 267°
2026-05-07 17:42 47.72535 9.52927 15878 ft 351 kts 267°
2026-05-07 17:42 47.72426 9.49302 15260 ft 352 kts 267°
2026-05-07 17:42 47.72156 9.45678 14637 ft 353 kts 258°
2026-05-07 17:42 47.71399 9.42216 14029 ft 354 kts 246°
2026-05-07 17:43 47.70176 9.39047 13393 ft 355 kts 235°
2026-05-07 17:43 47.68629 9.36179 12730 ft 356 kts 232°
2026-05-07 17:43 47.67067 9.33341 12080 ft 355 kts 232°
2026-05-07 17:43 47.65508 9.30499 11440 ft 355 kts 232°
2026-05-07 17:44 47.63956 9.27671 10805 ft 354 kts 232°
2026-05-07 17:44 47.62400 9.24841 10199 ft 353 kts 231°
2026-05-07 17:44 47.60856 9.22023 9560 ft 352 kts 233°
2026-05-07 17:44 47.59612 9.18974 8898 ft 350 kts 245°
2026-05-07 17:45 47.58849 9.15574 8247 ft 348 kts 258°
2026-05-07 17:45 47.58418 9.12051 7619 ft 347 kts 259°
2026-05-07 17:45 47.57993 9.08580 7286 ft 338 kts 259°
2026-05-07 17:45 47.57584 9.05208 7039 ft 326 kts 262°
2026-05-07 17:46 47.57479 9.01915 6788 ft 315 kts 272°
2026-05-07 17:46 47.57639 8.98727 6534 ft 306 kts 274°
2026-05-07 17:46 47.57790 8.95632 6292 ft 297 kts 274°
2026-05-07 17:46 47.57931 8.92625 6032 ft 288 kts 274°
2026-05-07 17:47 47.58065 8.89708 5775 ft 280 kts 274°
2026-05-07 17:47 47.58194 8.86862 5519 ft 273 kts 274°
2026-05-07 17:47 47.58318 8.84089 5272 ft 267 kts 274°
2026-05-07 17:47 47.58432 8.81365 5013 ft 263 kts 274°
2026-05-07 17:48 47.58536 8.78653 4754 ft 264 kts 274°
2026-05-07 17:48 47.58647 8.75931 4500 ft 265 kts 274°
2026-05-07 17:48 47.58763 8.73217 4243 ft 264 kts 275°
2026-05-07 17:48 47.58880 8.70517 4039 ft 262 kts 274°
2026-05-07 17:49 47.58996 8.67820 4009 ft 263 kts 274°
2026-05-07 17:49 47.59108 8.65151 4009 ft 263 kts 274°
2026-05-07 17:49 47.59219 8.62443 4011 ft 263 kts 274°
2026-05-07 17:49 47.59329 8.59744 4010 ft 262 kts 274°
2026-05-07 17:50 47.59439 8.57047 4007 ft 263 kts 274°
2026-05-07 17:50 47.59549 8.54344 4011 ft 262 kts 274°
2026-05-07 17:50 47.59656 8.51644 4009 ft 263 kts 274°
2026-05-07 17:50 47.59768 8.48947 4008 ft 257 kts 275°
2026-05-07 17:51 47.59743 8.46380 3908 ft 243 kts 256°
2026-05-07 17:51 47.58961 8.44309 3665 ft 225 kts 224°
2026-05-07 17:51 47.57684 8.43277 3596 ft 198 kts 194°
2026-05-07 17:51 47.56386 8.43243 3491 ft 180 kts 168°
2026-05-07 17:52 47.55308 8.43937 3317 ft 164 kts 144°
2026-05-07 17:52 47.54472 8.45030 3127 ft 158 kts 136°
2026-05-07 17:52 47.53671 8.46129 2918 ft 156 kts 136°
2026-05-07 17:52 47.52877 8.47215 2720 ft 155 kts 136°
2026-05-07 17:53 47.52087 8.48299 2504 ft 155 kts 136°
2026-05-07 17:53 47.51293 8.49385 2288 ft 154 kts 136°
2026-05-07 17:53 47.50509 8.50459 2072 ft 154 kts 136°
2026-05-07 17:53 47.49718 8.51540 1860 ft 155 kts 136°
2026-05-07 17:54 47.48936 8.52624 1653 ft 154 kts 136°
2026-05-07 17:54 47.48137 8.53702 1452 ft 155 kts 137°
2026-05-07 17:54 47.47391 8.54724 1389 ft 128 kts 135°
2026-05-07 17:54 47.46884 8.55417 1401 ft 73 kts 137°
2026-05-07 17:55 47.46641 8.55750 1397 ft 35 kts 137°
2026-05-07 17:55 47.46482 8.55927 1401 ft 25 kts 167°
2026-05-07 17:55 47.46378 8.55957 1402 ft 9 kts 168°
2026-05-07 17:55 47.46332 8.55972 1403 ft 4 kts 168°
2026-05-07 17:56 47.46316 8.55977 1406 ft 2 kts 168°
2026-05-07 17:56 47.46275 8.55990 1403 ft 10 kts 168°
2026-05-07 17:56 47.46196 8.56008 1407 ft 10 kts 180°
2026-05-07 17:56 47.46154 8.56001 1406 ft 5 kts 187°
2026-05-07 17:57 47.46129 8.55996 1407 ft 2 kts 187°
2026-05-07 17:57 47.46121 8.55994 1407 ft 2 kts 187°
2026-05-07 17:57 47.46088 8.55988 1407 ft 3 kts 186°
2026-05-07 17:57 47.46072 8.55986 1407 ft 3 kts 186°
2026-05-07 17:58 47.46040 8.55981 1407 ft 6 kts 185°
2026-05-07 17:58 47.45993 8.55975 1406 ft 4 kts 185°
2026-05-07 17:58 47.45969 8.55971 1406 ft 3 kts 185°
2026-05-07 17:58 47.45957 8.55970 1406 ft 3 kts 186°
2026-05-07 17:59 47.45906 8.55941 1412 ft 9 kts 204°
2026-05-07 17:59 47.45859 8.55913 1412 ft 6 kts 199°
2026-05-07 17:59 47.45812 8.55889 1412 ft 7 kts 198°
2026-05-07 17:59 47.45768 8.55876 1414 ft 6 kts 187°
2026-05-07 18:00 47.45727 8.55870 1413 ft 6 kts 186°
2026-05-07 18:00 47.45687 8.55863 1413 ft 6 kts 186°
2026-05-07 18:00 47.45648 8.55857 1410 ft 5 kts 186°
2026-05-07 18:00 47.45621 8.55853 1409 ft 3 kts 186°
2026-05-07 18:01 47.45598 8.55849 1409 ft 6 kts 186°
2026-05-07 18:01 47.45558 8.55843 1408 ft 6 kts 186°
2026-05-07 18:01 47.45520 8.55829 1408 ft 4 kts 223°
2026-05-07 18:01 47.45509 8.55785 1409 ft 4 kts 253°
2026-05-07 18:02 47.45467 8.55754 1407 ft 3 kts 190°
2026-05-07 18:02 47.45450 8.55750 1413 ft 2 kts 187°
2026-05-07 18:02 47.45441 8.55749 1415 ft 1 kts 186°
2026-05-07 18:03 47.45436 8.55748 1411 ft 0 kts 186°